Date String (YYYY-MM-DD hh:mm:ss) UTC,Instrument flags,Ambient pressure (hPa),Sample flow (lpm),Bypass flow (lpm),Sample temperature (°C),Ambient temperature (°C),ASC tube jacket temperature (°C),LED temperature (°C),Box temperature (°C),Sample RH (%),Span deviation,Mass concentration (μg/m³),Mass concentration (μg/m³),Mass concentration (μg/m³)
DateTimeUTC,F1_M11,P_M11,Q1_M11,Q2_M11,T1_M11,T2_M11,T3_M11,T4_M11,T5_M11,U1_M11,ZSPAN_M11,X0_M11,X2_M11,X1_M11
2022-09-22 18:00:00,,0829.7,4.99,0.00,29.4,27.9,00.0,38.1,31.3,25.6,-001.8,0007.96,0004.55,0004.23
2022-09-22 18:01:00,,0829.7,5.01,0.00,29.4,27.9,00.0,38.1,31.3,25.4,-001.8,0007.92,0004.53,0004.22
2022-09-22 18:02:00,,0829.7,4.99,0.00,29.4,27.9,00.0,38.1,31.3,25.7,-002.1,0007.90,0004.53,0004.23
2022-09-22 18:03:00,,0829.7,5.02,0.00,29.4,27.9,00.0,38.1,31.2,25.6,-002.1,0007.86,0004.53,0004.25
2022-09-22 18:04:00,,0829.7,4.99,0.00,29.4,27.9,00.0,38.2,31.2,26.0,-002.1,0007.85,0004.53,0004.27
2022-09-22 18:05:00,,0829.7,5.00,0.00,29.4,27.8,00.0,38.2,31.2,25.7,-002.1,0007.99,0004.58,0004.32
2022-09-22 18:06:00,,0829.5,5.01,0.00,29.4,27.8,00.0,38.1,31.3,26.0,-001.8,0008.10,0004.64,0004.36
2022-09-22 18:07:00,,0829.6,5.00,0.00,29.4,27.8,00.0,38.2,31.2,26.6,-001.6,0008.13,0004.70,0004.44
2022-09-22 18:08:00,,0829.7,4.99,0.00,29.4,27.8,00.0,38.1,31.2,26.6,-001.6,0008.33,0004.83,0004.56
2022-09-22 18:09:00,,0829.6,5.01,0.00,29.4,27.8,00.0,38.1,31.2,26.6,-001.6,0008.47,0004.95,0004.65
2022-09-22 18:10:00,,0829.6,5.01,0.00,29.4,27.8,00.0,38.1,31.2,26.6,-001.3,0008.21,0005.07,0004.75
2022-09-22 18:11:00,,0829.8,4.99,0.00,29.4,27.9,00.0,38.1,31.2,26.6,-000.6,0008.02,0005.21,0004.86
2022-09-22 18:12:00,,0829.5,5.01,0.00,29.4,27.9,00.0,38.1,31.2,26.8,-000.1,0008.13,0005.32,0004.96
2022-09-22 18:13:00,,0829.5,4.98,0.00,29.4,27.9,00.0,38.1,31.3,26.6,-000.2,0008.23,0005.42,0005.05
2022-09-22 18:14:00,,0829.5,5.00,0.00,29.4,28.0,00.0,38.1,31.3,26.4,0000.4,0008.43,0005.51,0005.12
2022-09-22 18:15:00,,0829.4,4.99,0.00,29.4,28.0,00.0,38.1,31.3,26.5,0000.5,0008.51,0005.60,0005.20
2022-09-22 18:16:00,,0829.5,5.01,0.00,29.4,28.0,00.0,38.1,31.3,26.6,0000.7,0008.52,0005.67,0005.26
2022-09-22 18:17:00,,0829.5,4.99,0.00,29.4,28.0,00.0,38.1,31.3,26.9,0000.1,0008.55,0005.73,0005.32
2022-09-22 18:18:00,,0829.5,5.00,0.00,29.4,28.0,00.0,38.1,31.3,26.6,0000.6,0008.60,0005.78,0005.36
2022-09-22 18:19:00,,0829.5,5.00,0.00,29.4,28.0,00.0,38.2,31.3,26.6,0000.4,0008.49,0005.75,0005.34
2022-09-22 18:20:00,,0829.5,5.00,0.00,29.4,28.0,00.0,38.2,31.3,26.2,0000.4,0008.46,0005.72,0005.34
2022-09-22 18:21:00,,0829.5,5.00,0.00,29.4,28.0,00.0,38.2,31.3,26.2,-000.1,0008.63,0005.68,0005.32
2022-09-22 18:22:00,,0829.5,5.00,0.00,29.4,28.0,00.0,38.2,31.3,26.5,-000.5,0008.55,0005.65,0005.32
2022-09-22 18:23:00,,0829.6,5.00,0.00,29.4,28.0,00.0,38.2,31.3,26.8,-000.7,0009.48,0005.65,0005.33
2022-09-22 18:24:00,,0829.5,4.99,0.00,29.4,28.0,00.0,38.2,31.3,26.6,-000.7,0009.99,0005.66,0005.32
2022-09-22 18:25:00,,0829.6,5.00,0.00,29.4,28.0,00.0,38.2,31.3,26.5,-001.3,0009.87,0005.65,0005.31
2022-09-22 18:26:00,,0829.5,5.01,0.00,29.4,28.0,00.0,38.2,31.3,26.4,-001.7,0009.94,0005.67,0005.31
2022-09-22 18:27:00,,0829.5,4.99,0.00,29.4,27.9,00.0,38.2,31.3,26.4,-001.8,0010.04,0005.71,0005.32
2022-09-22 18:28:00,,0829.4,5.01,0.00,29.4,27.9,00.0,38.2,31.3,26.3,-001.7,0010.09,0005.72,0005.32
2022-09-22 18:29:00,,0829.5,5.01,0.00,29.4,27.9,00.0,38.2,31.3,26.3,-002.0,0010.10,0005.71,0005.32
2022-09-22 18:30:00,,0829.5,4.99,0.00,29.4,27.9,00.0,38.2,31.3,26.4,-002.2,0010.11,0005.72,0005.32
2022-09-22 18:31:00,,0829.6,5.01,0.00,29.4,28.0,00.0,38.2,31.3,26.3,-002.2,0010.09,0005.73,0005.33
2022-09-22 18:32:00,,0829.5,5.00,0.00,29.4,28.0,00.0,38.2,31.3,26.2,-002.0,0009.87,0005.76,0005.35
2022-09-22 18:33:00,,0829.5,4.99,0.00,29.5,28.0,00.0,38.2,31.3,26.3,-001.8,0009.97,0005.79,0005.36
2022-09-22 18:34:00,,0829.5,5.01,0.00,29.5,28.0,00.0,38.2,31.3,26.3,-001.9,0008.98,0005.78,0005.35
2022-09-22 18:35:00,,0829.5,4.99,0.00,29.5,28.0,00.0,38.2,31.3,26.4,-001.6,0008.60,0005.80,0005.36
2022-09-22 18:36:00,,0829.5,5.01,0.00,29.5,28.0,00.0,38.2,31.3,26.3,-001.5,0008.60,0005.81,0005.37
2022-09-22 18:37:00,,0829.5,5.01,0.00,29.5,28.0,00.0,38.2,31.3,26.2,-001.4,0008.66,0005.79,0005.37
2022-09-22 18:38:00,,0829.5,4.99,0.00,29.5,28.1,00.0,38.2,31.4,26.3,-001.3,0008.79,0005.76,0005.35
2022-09-22 18:39:00,,0829.5,5.01,0.00,29.5,28.1,00.0,38.2,31.4,26.6,-001.3,0008.73,0005.74,0005.34
2022-09-22 18:40:00,,0829.5,5.00,0.00,29.5,28.1,00.0,38.2,31.4,26.8,-001.1,0008.65,0005.70,0005.32
2022-09-22 18:41:00,,0829.5,5.01,0.00,29.5,28.1,00.0,38.2,31.4,26.6,-000.9,0008.67,0005.70,0005.31
2022-09-22 18:42:00,,0829.4,4.99,0.00,29.5,28.1,00.0,38.2,31.4,26.2,-000.8,0008.61,0005.65,0005.28
2022-09-22 18:43:00,,0829.4,5.01,0.00,29.5,28.1,00.0,38.2,31.4,26.3,-001.0,0008.52,0005.58,0005.22
2022-09-22 18:44:00,,0829.3,5.00,0.00,29.5,28.1,00.0,38.2,31.4,26.1,-001.3,0008.43,0005.52,0005.17
2022-09-22 18:45:00,,0829.2,5.01,0.00,29.5,28.1,00.0,38.2,31.4,26.0,-001.2,0008.49,0005.54,0005.17
2022-09-22 18:46:00,,0829.2,4.99,0.00,29.5,28.1,00.0,38.2,31.4,26.1,-001.1,0008.45,0005.52,0005.16
2022-09-22 18:47:00,,0829.3,5.01,0.00,29.5,28.1,00.0,38.2,31.4,26.1,-001.1,0008.69,0005.49,0005.13
2022-09-22 18:48:00,,0829.1,4.99,0.00,29.5,28.1,00.0,38.2,31.4,26.1,-000.4,0008.44,0005.43,0005.11
2022-09-22 18:49:00,,0829.2,5.01,0.00,29.5,28.1,00.0,38.3,31.4,26.0,-000.6,0008.15,0005.38,0005.08
2022-09-22 18:50:00,,0829.2,4.99,0.00,29.5,28.1,00.0,38.2,31.4,26.1,-001.0,0008.10,0005.34,0005.05
2022-09-22 18:51:00,,0829.3,5.01,0.00,29.5,28.1,00.0,38.3,31.4,26.3,-001.5,0008.07,0005.31,0005.02
2022-09-22 18:52:00,,0829.3,5.01,0.00,29.5,28.0,00.0,38.3,31.4,26.4,-001.4,0008.01,0005.29,0005.01
2022-09-22 18:53:00,,0829.3,4.99,0.00,29.5,28.0,00.0,38.3,31.4,26.4,-001.1,0008.04,0005.31,0005.01
2022-09-22 18:54:00,,0829.3,5.01,0.00,29.5,28.0,00.0,38.3,31.3,26.2,-000.8,0008.07,0005.32,0005.03
2022-09-22 18:55:00,,0829.3,4.98,0.00,29.5,27.9,00.0,38.3,31.3,26.2,-000.1,0007.99,0005.32,0005.05
2022-09-22 18:56:00,,0829.2,5.02,0.00,29.5,27.8,00.0,38.3,31.3,26.4,-000.3,0007.91,0005.29,0005.03
2022-09-22 18:57:00,,0829.2,5.00,0.00,29.5,27.8,00.0,38.2,31.3,26.4,-000.8,0007.93,0005.29,0005.03
2022-09-22 18:58:00,,0829.1,5.00,0.00,29.5,27.8,00.0,38.2,31.3,26.2,-000.7,0007.68,0005.31,0005.05
2022-09-22 18:59:00,,0829.1,5.00,0.00,29.4,27.8,00.0,38.2,31.3,26.2,-000.7,0007.76,0005.35,0005.06
